Flag for Norway Weather past 2 weeks in Sandnes, Norway

Now
54 °F

Drizzle. Partly sunny.


Feels Like: 49 °F
Forecast: 47 / 55 °F
Wind: 16 mph from West

Location: Stavanger / Sola

Current Time: Oct 20, 2014 at 11:57:16 AM

Latest Report: Oct 20, 2014 at 11:20 AM


Visibility: 6 mi

Pressure: 29.53 "Hg

Humidity: 94%

Dew point: 52 °F

Location of SandnesLocation

Historic Weather in Sandnes — Graph

°F

Sandnes temperature yesterday

Maximum temperature yesterday: 59 °F (at 12:20 PM)
Minimum temperature yesterday: 55 °F (at 5:50 AM)
Average temperature yesterday: 57 °F

Past Weeks' High & Low Weather Summary

 TemperatureHumidityPressure
High61 °F (Oct 6, 11:50 AM)100% (Oct 12, 6:20 AM)30.12 "Hg (Oct 12, 6:20 AM)
Low34 °F (Oct 17, 4:50 AM)44% (Oct 7, 1:50 AM)29.15 "Hg (Oct 8, 5:50 AM)
Average52 °F79%29.73 "Hg
* Reported Oct 5 10:20 AM — Oct 20 10:50 AM, Sandnes, Weather by CustomWeather, © 2014

Note: Actual official high and low records may vary slightly from our data, if they occured in-between our weather recording intervals... More about our weather records

Advertising

Sandnes weather history for previous 24 hours

 ConditionsComfort  
Time TempWeatherWind HumidityBarometerVisibility
10:50 AM
Oct 20
55 °FScattered showers. Broken clouds.18 mph88%29.50 "Hg6 mi
10:20 AM55 °FBroken clouds.20 mph88%29.50 "Hg6 mi
9:50 AM55 °FBroken clouds.22 mph88%29.47 "Hg6 mi
9:20 AM55 °FScattered showers. Passing clouds.17 mph88%29.47 "Hg6 mi
8:50 AM54 °FScattered showers. Partly cloudy.21 mph94%29.45 "Hg6 mi
8:20 AM55 °FSprinkles. Passing clouds.21 mph88%29.45 "Hg6 mi
7:50 AM55 °FSprinkles. Passing clouds.20 mph94%29.45 "Hg6 mi
7:20 AM55 °FSprinkles. Passing clouds.20 mph94%29.42 "Hg5 mi
6:50 AM55 °FSprinkles. Passing clouds.17 mph94%29.42 "Hg4 mi
5:20 AM54 °FLight rain. Passing clouds.17 mph94%29.42 "Hg6 mi
4:50 AM54 °FRain showers. Partly cloudy.20 mph94%29.42 "Hg4 mi
3:50 AM54 °FLight rain. Partly cloudy.18 mph94%29.42 "Hg6 mi
2:50 AM55 °FPartly cloudy.18 mph82%29.42 "HgN/A
1:50 AM55 °FPartly cloudy.17 mph88%29.39 "HgN/A
12:50 AM55 °FPartly cloudy.17 mph88%29.36 "HgN/A
12:20 AM55 °FPartly cloudy.16 mph94%29.36 "HgN/A
11:50 PM
Oct 19
55 °FLight rain. Passing clouds.16 mph94%29.36 "Hg6 mi
11:20 PM55 °FLight rain. Passing clouds.15 mph94%29.36 "Hg6 mi
10:50 PM55 °FSprinkles. Passing clouds.16 mph94%29.36 "Hg6 mi
10:20 PM57 °FPassing clouds.16 mph88%29.36 "Hg6 mi
9:50 PM57 °FPassing clouds.17 mph88%29.36 "Hg6 mi
9:20 PM57 °FPassing clouds.16 mph88%29.36 "Hg6 mi
8:50 PM57 °FPassing clouds.16 mph88%29.36 "Hg6 mi
8:20 PM57 °FPassing clouds.16 mph88%29.36 "Hg6 mi
7:50 PM57 °FPassing clouds.18 mph88%29.36 "Hg6 mi
7:20 PM57 °FLight rain. Partly sunny.16 mph88%29.36 "Hg6 mi
6:50 PM57 °FPartly sunny.18 mph88%29.36 "Hg6 mi
6:20 PM55 °FLight rain. Partly sunny.16 mph94%29.36 "Hg4 mi
5:50 PM55 °FLight rain. Broken clouds.17 mph94%29.39 "Hg4 mi
5:20 PM57 °FDrizzle. Broken clouds.17 mph88%29.39 "Hg5 mi
4:50 PM57 °FDrizzle. Partly sunny.16 mph88%29.39 "Hg5 mi
4:20 PM57 °FLight rain. Broken clouds.17 mph88%29.42 "HgN/A
3:50 PM57 °FSprinkles. Partly sunny.20 mph94%29.42 "Hg6 mi
3:20 PM57 °FRain showers. Partly sunny.18 mph94%29.45 "Hg6 mi
2:50 PM57 °FPartly sunny.17 mph88%29.45 "HgN/A
2:20 PM59 °FPartly sunny.20 mph88%29.45 "HgN/A
1:50 PM59 °FPartly sunny.17 mph88%29.47 "HgN/A
1:20 PM59 °FPartly sunny.17 mph88%29.50 "Hg6 mi
12:50 PM59 °FBroken clouds.16 mph88%29.50 "Hg6 mi
12:20 PM59 °FBroken clouds.14 mph88%29.50 "Hg6 mi
11:50 AM57 °FPartly sunny.16 mph94%29.53 "HgN/A
11:20 AM57 °FBroken clouds.12 mph94%29.53 "HgN/A
Weather by CustomWeather, © 2014

See weather overviewHow to use our weather pages